Location: Holyhead Bay
(53.3667°N, 4.6667°W)
Time: 18:17:51
(UTC+00:00)

POPSAT HIP 1 - Visible Passes

Search period start: 22 June 2021 00:00
Search period end: 02 July 2021 00:00
Orbit: 590 x 610 km, 97.9° (Epoch: 22 June)

Date Brightness Start Highest point End Pass type
(mag) Time Alt. Az. Time Alt. Az. Time Alt. Az.
22 Jun ? 01:31:32 10° NNE 01:35:40 55° E 01:39:04 15° S visible
23 Jun ? 01:42:39 10° NNE 01:46:52 70° ESE 01:50:20 15° S visible
24 Jun ? 00:19:53 10° ENE 00:21:39 12° E 00:23:25 10° ESE visible
24 Jun ? 01:53:48 10° NNE 01:58:02 89° ESE 02:01:36 14° SSW visible
25 Jun ? 00:30:25 10° NE 00:32:57 16° E 00:35:29 10° SE visible
25 Jun ? 02:04:58 10° NNE 02:09:10 73° WNW 02:12:52 13° SSW visible
26 Jun ? 00:41:10 10° NE 00:44:14 19° E 00:47:16 10° SE visible
26 Jun ? 02:16:10 10° N 02:20:18 58° WNW 02:24:08 12° SSW visible
27 Jun ? 00:52:03 10° NE 00:55:29 24° E 00:58:38 11° SE visible
27 Jun ? 02:27:24 10° N 02:31:25 46° WNW 02:35:23 10° SW visible
28 Jun ? 01:03:01 10° NNE 01:06:44 30° E 01:09:54 13° SSE visible
28 Jun ? 02:38:39 10° N 02:42:31 37° WNW 02:46:21 10° SW visible
29 Jun ? 01:14:02 10° NNE 01:17:57 37° E 01:21:09 14° SSE visible
29 Jun ? 02:49:56 10° N 02:53:36 30° WNW 02:57:14 10° SW visible
30 Jun ? 01:25:05 10° NNE 01:29:10 47° E 01:32:24 15° S visible
30 Jun ? 03:01:14 10° N 03:04:39 25° WNW 03:08:03 10° WSW visible
01 Jul ? 01:36:11 10° NNE 01:40:21 60° ESE 01:43:39 15° S visible
